Regional Weather Roundup
Issued by NWS Newport/Morehead, NC

Current Version | Previous Version | Text Only | Print | Product List | Glossary On
Versions: 1 2 3 4 5 6 7 8 9 10 11 12 13 14 15 16 17 18 19 20 21 22 23 24 25 26 27 28 29 30 31 32 33 34 35 36 37 38 39 40 41 42 43 44 45 46 47 48 49 50
000
ASUS42 KMHX 202113
RWRMHX
WEATHER ROUNDUP FOR EASTERN NORTH CAROLINA
NATIONAL WEATHER SERVICE NEWPORT/MOREHEAD CITY NC
400 PM EST MON NOV 20 2017

NOTE: "FAIR" INDICATES FEW OR NO CLOUDS BELOW 12,000 FEET
WITH NO SIGNIFICANT WEATHER AND/OR OBSTRUCTIONS TO VISIBILITY

NCZ015>017-031-032-045>047-102-103-202200-
NORTH COAST

CITY           SKY/WX    TMP DP  RH WIND       PRES   REMARKS
EDENTON        CLEAR     55  29  37 CALM      30.24S
ELIZABETH CITY CLEAR     54  30  40 N3        30.23S
KITTY HAWK     CLEAR     50  31  48 CALM      30.22S
MANTEO         CLEAR     50  31  48 N6        30.24S

$$

NCZ045>047-081-094-103-104-202200-
CENTRAL COAST

CITY           SKY/WX    TMP DP  RH WIND       PRES   REMARKS
FRISCO         CLEAR     53  38  56 VRB5      30.24R

$$

NCZ095-097-098-100-101-202200-
SOUTHERN COAST

CITY           SKY/WX    TMP DP  RH WIND       PRES   REMARKS
BEAUFORT       CLEAR     56  33  42 N5        30.24R
CEDAR ISLAND   NOT AVBL
JACKSONVILLE   MOSUNNY   58  29  33 CALM      30.23R
PINEY ISLAND     N/A    N/A N/A N/A NE6       30.24R
WILMINGTON     SUNNY     60  28  29 N3        30.24R


$$

NCZ011>013-027>030-043-044-078>080-089-090>093-098-202200-
COASTAL PLAIN

CITY           SKY/WX    TMP DP  RH WIND       PRES   REMARKS
AHOSKIE        CLEAR     52  24  33 CALM      30.24R
CLINTON        SUNNY     57  28  32 CALM      30.24S
ELIZABETHTOWN  NOT AVBL
GOLDSBORO      SUNNY     56  24  29 CALM      30.22R
GREENVILLE     CLEAR     55  27  33 CALM      30.25R
HAVELOCK       CLEAR     57  25  29 N5        30.25R
KENANSVILLE    SUNNY     57  25  28 CALM      30.24R
KINSTON        SUNNY     55  25  30 CALM      30.25R
NEW BERN       CLEAR     55  28  35 CALM      30.25R
RICHLANDS      SUNNY     56  26  31 CALM      30.24R
ROCKY MOUNT    SUNNY     55  28  35 NE3       30.23S
WASHINGTON     CLEAR     55  27  34 CALM      30.24R
WHITEVILLE     SUNNY     59  27  29 CALM      30.23R

$$

AMZ130-135-150-152-154-156-158-170-250-252-270-ANZ085-086-088-633-658-670-202200-
MARINE OBSERVATIONS

STATION/POSITION TIME  TEMP    WIND        PRES    WAVE   SWELL
                       AIR SEA DIR/SP/G            HT/PER HT/PER
                 (UTC) (F)     (DEG/KT/KT) (MB)    (FT/S) (FT/S)
CHESAPEAKE LIGHT NOT AVBL
64 E VA BEACH    2050   50 60  300/ 12/ 16 1024.2    4/ 7   3/ 7
DUCK             2048   52 60  340/  4/  6 1023.2
2 E DUCK         2100      61                N/A     2/ 7
OREGON INLET     2042   50 56  310/  6/  8 1023.8
13E OREGON INLT  2048      62                N/A     4/ 6   3/ 6
HATTERAS CG      2042   52 57   20/  8/ 10 1023.5
DIAMOND BUOY     2100   53 66  350/ 10/ 14 1024.2
CAPE LOOKOUT     2100          360/  4/  4 1024.3
BEAUFORT LAB     2042   56 59   10/  5/  6 1023.9
30 SE NEW RVR IN 2008   54 67   30/  6/ 10 1023.7
30 SE NEW RVR IN 2100      67                N/A     2/ 8
27 SE WRIGHTSVLE 2008   55 68   30/  8/ 12 1023.5
5 SE WRIGHTSVLE  2008   57 64   20/  4/  8 1023.5
225 S CAPE HAT   2050   67 77   40/ 14/ 19 1021.7    6/ 8   5/ 8
41 SE CHARLESTON 2100   60 73   50/ 12/ 16 1023.1

$$




USA.gov is the U.S. government's official web portal to all federal, state and local government web resources and services.